Muscatine, IA

2:37 AM CDT on March 29, 2017 (GMT -0500)
Muscatine Municipal

Weather History for KMUT - July, 2013

Change the Weather History Date:

Monday, July 22, 2013

  Actual Average Record
Temperature  
Mean Temperature 76 °F -  
Max Temperature 89 °F 85 °F 104 °F (1983)
Min Temperature 62 °F 66 °F 53 °F (1988)
Cooling Degree Days 10    
Growing Degree Days 26 (Base 50)    
Moisture  
Dew Point 66 °F    
Average Humidity 75    
Maximum Humidity 88    
Minimum Humidity 55    
Precipitation  
Precipitation 0.10 in - - ()
Sea Level Pressure  
Sea Level Pressure 29.81 in    
Wind  
Wind Speed 3 mph (SSW)    
Max Wind Speed 22 mph    
Max Gust Speed 32 mph    
Visibility 8 miles    
Events Fog , Rain    
Averages and records for this station are not official NWS values.
T = Trace of Precipitation, MM = Missing Value Source: NWS Daily Summary

Daily Weather History Graph

Daily Weather History Graph

Search for Another Location

Airport or City:

Trip Planner

Search our weather history database for the weather conditions in past years. The results will help you decide how hot, cold, wet, or windy it might be!

Date:

Astronomy

Jul. 22, 2013 Rise Set
Actual Time 5:50 AM CDT 8:31 PM CDT
Civil Twilight 5:18 AM CDT 9:03 PM CDT
Nautical Twilight 4:38 AM CDT 9:43 PM CDT
Astronomical Twilight 3:52 AM CDT 10:28 PM CDT
Moon 8:16 PM CDT (7/22) 5:47 AM CDT (7/22)
Length of Visible Light 15h 44m
Length of Day
14h 40m
Full, 100% of the Moon is Illuminated
Jul 22
Full
Jul 22
Full
Jul 29
Last Quarter
Aug 6
New
Aug 14
First Quarter

Hourly Weather History & Observations

Time (CDT) Temp. Heat Index Dew Point Humidity Pressure Visibility Wind Dir Wind Speed Gust Speed Precip Events Conditions
12:15 AM 64.4 °F - 60.8 °F 88% 29.88 in 10.0 mi Calm Calm - N/A   Unknown
12:35 AM 64.4 °F - 60.8 °F 88% 29.88 in 7.0 mi Calm Calm - N/A   Unknown
12:55 AM 64.4 °F - 60.8 °F 88% 29.88 in 5.0 mi Calm Calm - N/A   Mist
1:15 AM 64.4 °F - 60.8 °F 88% 29.87 in 7.0 mi Calm Calm - N/A   Unknown
1:35 AM 64.4 °F - 60.8 °F 88% 29.86 in 5.0 mi Calm Calm - N/A   Mist
1:55 AM 64.4 °F - 60.8 °F 88% 29.85 in 10.0 mi Calm Calm - N/A   Unknown
2:15 AM 64.4 °F - 60.8 °F 88% 29.84 in 5.0 mi Calm Calm - N/A   Mist
2:35 AM 62.6 °F - 59.0 °F 88% 29.83 in 0.8 mi Calm Calm - N/A   Mist
2:55 AM 62.6 °F - 59.0 °F 88% 29.83 in 5.0 mi Calm Calm - N/A   Mist
3:15 AM 62.6 °F - 59.0 °F 88% 29.83 in 0.8 mi Calm Calm - N/A   Mist
3:35 AM 62.6 °F - 59.0 °F 88% 29.82 in 0.5 mi Calm Calm - N/A Fog Fog
3:55 AM 62.6 °F - 59.0 °F 88% 29.82 in 0.5 mi Calm Calm - N/A Fog Fog
4:15 AM 62.6 °F - 57.2 °F 82% 29.82 in 0.2 mi Calm Calm - N/A Fog Fog
4:35 AM 62.6 °F - 57.2 °F 82% 29.83 in 0.5 mi Calm Calm - N/A Fog Fog
4:55 AM 62.6 °F - 59.0 °F 88% 29.83 in 0.5 mi Calm Calm - N/A Fog Fog
5:15 AM 64.4 °F - 60.8 °F 88% 29.83 in 1.5 mi Calm Calm - N/A   Mist
5:35 AM 64.4 °F - 60.8 °F 88% 29.84 in 3.0 mi Calm Calm - N/A   Mist
5:55 AM 64.4 °F - 60.8 °F 88% 29.84 in 1.0 mi Calm Calm - N/A   Mist
6:15 AM 64.4 °F - 60.8 °F 88% 29.84 in 5.0 mi Calm Calm - N/A   Mist
6:35 AM 64.4 °F - 60.8 °F 88% 29.84 in 4.0 mi Calm Calm - N/A   Mist
6:55 AM 66.2 °F - 62.6 °F 88% 29.84 in 2.0 mi Calm Calm - N/A   Haze
7:15 AM 66.2 °F - 62.6 °F 88% 29.83 in 2.5 mi Calm Calm - N/A   Mist
7:35 AM 68.0 °F - 64.4 °F 88% 29.84 in 2.5 mi SSE 3.5 mph - N/A   Mist
7:55 AM 69.8 °F - 64.4 °F 83% 29.84 in 3.0 mi Calm Calm - N/A   Mist
8:35 AM 69.8 °F - 66.2 °F 88% 29.85 in 7.0 mi South 3.5 mph - N/A   Unknown
9:35 AM 73.4 °F - 66.2 °F 78% 29.85 in 10.0 mi Calm Calm - N/A   Unknown
9:55 AM 73.4 °F - 66.2 °F 78% 29.86 in 10.0 mi South 5.8 mph - N/A   Unknown
10:15 AM 73.4 °F - 66.2 °F 78% 29.86 in 10.0 mi SW 5.8 mph - N/A   Unknown
10:35 AM 75.2 °F - 68.0 °F 78% 29.85 in 10.0 mi South 4.6 mph - N/A   Unknown
10:55 AM 77.0 °F - 69.8 °F 78% 29.85 in 10.0 mi South 3.5 mph - N/A   Unknown
11:15 AM 78.8 °F - 69.8 °F 74% 29.84 in 10.0 mi South 3.5 mph - N/A   Unknown
11:35 AM 80.6 °F 83.9 °F 69.8 °F 70% 29.83 in 10.0 mi South 5.8 mph - N/A   Unknown
11:55 AM 80.6 °F 83.9 °F 69.8 °F 70% 29.83 in 10.0 mi South 6.9 mph - N/A   Unknown
12:15 PM 82.4 °F 86.3 °F 69.8 °F 66% 29.82 in 10.0 mi SSE 5.8 mph - N/A   Unknown
12:35 PM 82.4 °F 86.3 °F 69.8 °F 66% 29.81 in 10.0 mi SE 3.5 mph - N/A   Unknown
12:55 PM 84.2 °F 89.6 °F 71.6 °F 66% 29.81 in 10.0 mi SSW 4.6 mph - N/A   Unknown
1:15 PM 84.2 °F 89.6 °F 71.6 °F 66% 29.80 in 10.0 mi SE 4.6 mph - N/A   Unknown
1:35 PM 86.0 °F 91.8 °F 71.6 °F 62% 29.80 in 10.0 mi SSW 6.9 mph - N/A   Unknown
1:55 PM 87.8 °F 93.8 °F 71.6 °F 58% 29.79 in 10.0 mi SSW 8.1 mph - N/A   Unknown
2:15 PM 87.8 °F 93.8 °F 71.6 °F 58% 29.79 in 10.0 mi SSW 9.2 mph - N/A   Unknown
2:35 PM 87.8 °F 93.8 °F 71.6 °F 58% 29.79 in 10.0 mi South 8.1 mph - N/A   Unknown
2:55 PM 89.6 °F 98.2 °F 73.4 °F 59% 29.78 in 10.0 mi South 10.4 mph - N/A   Unknown
3:15 PM 87.8 °F 95.6 °F 73.4 °F 62% 29.77 in 10.0 mi SSW 8.1 mph - N/A   Unknown
3:35 PM 89.6 °F 98.2 °F 73.4 °F 59% 29.77 in 10.0 mi SSW 9.2 mph - N/A   Unknown
3:55 PM 89.6 °F 96.2 °F 71.6 °F 55% 29.78 in 10.0 mi SSW 9.2 mph - N/A   Unknown
4:15 PM 89.6 °F 98.2 °F 73.4 °F 59% 29.77 in 10.0 mi SSW 8.1 mph - N/A   Unknown
4:35 PM 89.6 °F 98.2 °F 73.4 °F 59% 29.76 in 10.0 mi SSW 9.2 mph - N/A   Unknown
4:55 PM 89.6 °F 98.2 °F 73.4 °F 59% 29.76 in 10.0 mi South 10.4 mph - N/A   Unknown
5:15 PM 89.6 °F 98.2 °F 73.4 °F 59% 29.76 in 10.0 mi SW 9.2 mph - N/A   Unknown
5:35 PM 89.6 °F 98.2 °F 73.4 °F 59% 29.75 in 10.0 mi SSW 8.1 mph - N/A   Unknown
5:55 PM 89.6 °F 96.2 °F 71.6 °F 55% 29.74 in 10.0 mi SSW 10.4 mph - N/A   Unknown
6:15 PM 89.6 °F 96.2 °F 71.6 °F 55% 29.74 in 10.0 mi SW 10.4 mph - N/A   Unknown
6:35 PM 87.8 °F 93.8 °F 71.6 °F 58% 29.74 in 10.0 mi WSW 9.2 mph - N/A   Unknown
6:55 PM 86.0 °F 91.8 °F 71.6 °F 62% 29.74 in 10.0 mi SSW 6.9 mph - N/A   Unknown
7:15 PM 84.2 °F 89.6 °F 71.6 °F 66% 29.74 in 10.0 mi SSW 4.6 mph - N/A   Unknown
7:35 PM 82.4 °F 88.2 °F 73.4 °F 74% 29.74 in 10.0 mi South 4.6 mph - N/A   Unknown
7:55 PM 82.4 °F 88.2 °F 73.4 °F 74% 29.74 in 10.0 mi South 4.6 mph - N/A   Unknown
8:15 PM 80.6 °F 85.4 °F 73.4 °F 79% 29.75 in 10.0 mi South 4.6 mph - N/A   Unknown
8:35 PM 80.6 °F 85.4 °F 73.4 °F 79% 29.75 in 10.0 mi SW 3.5 mph - N/A   Unknown
8:55 PM 80.6 °F 85.4 °F 73.4 °F 79% 29.77 in 10.0 mi West 4.6 mph - N/A   Unknown
9:15 PM 73.4 °F - 64.4 °F 73% 29.81 in 10.0 mi NNW 21.9 mph 32.2 mph 0.01 in Rain Light Rain
9:35 PM 69.8 °F - 62.6 °F 78% 29.80 in 10.0 mi NNW 18.4 mph 27.6 mph 0.10 in Rain Light Rain
9:55 PM 69.8 °F - 62.6 °F 78% 29.84 in 10.0 mi North 10.4 mph 19.6 mph 0.10 in   Unknown
10:15 PM 69.8 °F - 62.6 °F 78% 29.88 in 10.0 mi Calm Calm - N/A   Unknown
10:35 PM 69.8 °F - 62.6 °F 78% 29.88 in 10.0 mi Calm Calm - N/A   Unknown
10:55 PM 69.8 °F - 64.4 °F 83% 29.85 in 10.0 mi Calm Calm - N/A Rain Light Rain
11:15 PM 69.8 °F - 62.6 °F 78% 29.78 in 10.0 mi SSE 8.1 mph - N/A Rain Light Rain
11:35 PM 69.8 °F - 62.6 °F 78% 29.75 in 10.0 mi Calm Calm - N/A   Unknown
11:55 PM 69.8 °F - 62.6 °F 78% 29.76 in 10.0 mi South 3.5 mph - N/A   Unknown